Content
SEND FEEDBACK

Daily
Averages
Monthly
Summary
United States of America

INARAJAN, GUAM


Home > North America > United States > Guam
Elevation: 280 feet     Latitude: 13 18N     Longitude: 144 44E

WEATHER
 
SELECT A DAY
Number of Records: 354,252;   Date Range: 1/1/95 - 11/21/14
 
SHARE

PRINT THIS DATA

[ ← Previous Day ]
WEATHER ALMANAC - APRIL 16, 2013
[ Next Day → ]
[ °C ]   °F
Weather ElementAverageHighLow
Temperature77.7 °F84.2 °F (10:36 am)73.4 °F (1:25 am)
Dewpoint73.1 °F75.2 °F (7:35 am)69.8 °F (4:39 am)
Humidity86.4 %100 % (2:56 am)70 % (11:14 am)
Barometer29.85 in29.89 in (8:38 am)29.80 in (2:32 pm)
Wind Speed9.5 mph15 mph (12:55 am)
Weather ElementAverage
Visibility7.7 mi
Wind DirectionESE (106.5 °)

Weather ElementTotal
Precipitation0.83 in
Cooling Degree Days13.8 (Base 65)
Growing Degree Days28.8 (Base 50)
Averaged from 94 records on April 16, 2013
WEATHER CONDITIONS BREAKOUT
WIND DIRECTION BREAKOUT
WEATHER BY HOUR - APRIL 16, 2013
[ °C ]   °F
Local TimeTemperatureDewpointHumidityBarometerVisibilityWind DirectionWind SpeedGust SpeedPrecipitationEventsConditions
12:15 AM77.0 °F73.4 °F89 %29.86 in10.0 miNE (40°)13.8 mphScattered Clouds
12:46 AM75.2 °F71.6 °F89 %29.86 in10.0 miENE (70°)10.4 mphRainLight Rain
12:55 AM75.9 °F73.8 °F93 %29.86 in10.0 miEast (90°)15.0 mph0.02 inRainLight Rain
12:56 AM75.2 °F73.4 °F94 %29.86 in10.0 miEast (80°)15.0 mphMostly Cloudy
1:02 AM75.2 °F73.4 °F94 %29.85 in10.0 miEast (80°)13.8 mphMostly Cloudy
1:25 AM73.4 °F71.6 °F94 %29.85 in9.0 miEast (80°)9.2 mphMostly Cloudy
1:29 AM73.4 °F71.6 °F94 %29.84 in10.0 miENE (70°)6.9 mphMostly Cloudy
1:43 AM75.2 °F71.6 °F89 %29.84 in10.0 miNE (40°)10.4 mphRainLight Rain
1:55 AM74.7 °F72.5 °F93 %29.84 in10.0 miNorth (10°)8.1 mph0.00 inRainLight Rain
2:15 AM75.2 °F73.4 °F94 %29.84 in10.0 miNNW (340°)8.1 mphMostly Cloudy
2:22 AM75.2 °F73.4 °F94 %29.84 in10.0 miNorth (350°)6.9 mphOvercast
2:28 AM75.2 °F73.4 °F94 %29.84 in10.0 miNorth (350°)5.8 mphOvercast
2:38 AM75.2 °F73.4 °F94 %29.84 in10.0 miNorth (350°)6.9 mphMostly Cloudy
2:55 AM74.1 °F73.0 °F96 %29.84 in10.0 miNorth (360°)6.9 mph0.01 inMostly Cloudy
2:56 AM73.4 °F73.4 °F100 %29.84 in10.0 miNorth (350°)6.9 mphMostly Cloudy
3:14 AM75.2 °F73.4 °F94 %29.84 in10.0 miNorth (360°)11.5 mphMostly Cloudy
3:17 AM75.2 °F73.4 °F94 %29.83 in10.0 miNorth (350°)11.5 mphOvercast
3:32 AM75.2 °F73.4 °F94 %29.84 in10.0 miNorth (360°)15.0 mphOvercast
3:42 AM73.4 °F71.6 °F94 %29.84 in10.0 miNorth (350°)11.5 mphOvercast
3:55 AM73.9 °F72.3 °F95 %29.84 in10.0 miNNW (330°)11.5 mphMostly Cloudy
4:07 AM73.4 °F71.6 °F94 %29.85 in7.0 miNNE (20°)8.1 mphRainHeavy Rain
4:08 AM73.4 °F71.6 °F94 %29.84 in6.0 miNNE (20°)9.2 mphRainHeavy Rain
4:11 AM73.4 °F71.6 °F94 %29.84 in4.0 miNorth (10°)9.2 mphRainHeavy Rain
4:14 AM73.4 °F71.6 °F94 %29.84 in3.0 miNNE (20°)11.5 mphRainHeavy Rain
4:39 AM73.4 °F69.8 °F88 %29.84 in10.0 miNE (40°)10.4 mphMostly Cloudy
4:45 AM73.4 °F69.8 °F88 %29.84 in10.0 miNE (50°)9.2 mphMostly Cloudy
4:55 AM74.1 °F70.5 °F88 %29.84 in10.0 miNE (40°)11.5 mph0.12 inMostly Cloudy
5:55 AM74.1 °F72.1 °F94 %29.85 in10.0 miNNE (20°)5.8 mphMostly Cloudy
5:58 AM75.2 °F71.6 °F89 %29.85 in10.0 miNorth (10°)4.6 mphLight Drizzle
6:18 AM75.2 °F73.4 °F94 %29.85 in8.0 miCalmRainLight Rain
6:21 AM75.2 °F73.4 °F94 %29.86 in8.0 miCalmRainLight Rain
6:38 AM75.2 °F73.4 °F94 %29.86 in2.5 miVariable5.8 mphRainRain
6:39 AM75.2 °F73.4 °F94 %29.86 in1.8 miVariable5.8 mphRainHeavy Rain
6:40 AM75.2 °F73.4 °F94 %29.86 in1.0 miVariable4.6 mphRainHeavy Rain
6:41 AM75.2 °F73.4 °F94 %29.86 in0.8 miNW (320°)5.8 mphRainHeavy Rain
6:43 AM75.2 °F73.4 °F94 %29.86 in0.5 miNW (320°)6.9 mphFog-RainHeavy Rain
6:47 AM75.2 °F73.4 °F94 %29.86 in0.2 miVariable5.8 mphFog-RainHeavy Rain
6:48 AM75.2 °F73.4 °F94 %29.86 in0.2 miVariable3.5 mphFog-RainHeavy Rain
6:49 AM75.2 °F73.4 °F94 %29.86 in0.2 miVariable6.9 mphFog-RainHeavy Rain
6:50 AM75.2 °F73.4 °F94 %29.86 in0.2 miWNW (290°)8.1 mphFog-RainHeavy Rain
6:52 AM75.2 °F73.4 °F94 %29.86 in0.5 miWNW (300°)5.8 mphFog-RainHeavy Rain
6:55 AM75.6 °F73.2 °F92 %29.87 in0.5 miCalm0.62 inFog-RainHeavy Rain
6:56 AM75.2 °F73.4 °F94 %29.86 in0.8 miCalmRainHeavy Rain
6:58 AM75.2 °F73.4 °F94 %29.86 in1.0 miWest (270°)4.6 mphRainLight Rain
6:59 AM75.2 °F73.4 °F94 %29.86 in1.2 miWSW (250°)3.5 mphRainLight Rain
7:00 AM75.2 °F73.4 °F94 %29.86 in1.8 miWSW (250°)3.5 mphRainLight Rain
7:01 AM75.2 °F73.4 °F94 %29.86 in2.0 miWSW (250°)4.6 mphRainLight Rain
7:02 AM75.2 °F73.4 °F94 %29.86 in2.5 miWSW (250°)4.6 mphRainLight Rain
7:03 AM75.2 °F73.4 °F94 %29.86 in3.0 miWSW (250°)4.6 mphRainLight Rain
7:12 AM75.2 °F73.4 °F94 %29.87 in2.5 miCalmRainRain
7:14 AM75.2 °F73.4 °F94 %29.87 in2.0 miCalmRainHeavy Rain
7:19 AM75.2 °F73.4 °F94 %29.87 in2.5 miENE (70°)6.9 mphRainLight Rain
7:20 AM77.0 °F73.4 °F89 %29.87 in3.0 miENE (70°)6.9 mphRainLight Rain
7:35 AM77.0 °F75.2 °F94 %29.87 in9.0 miNE (50°)12.7 mphLight Drizzle
7:37 AM77.0 °F75.2 °F94 %29.87 in10.0 miNE (50°)13.8 mphMostly Cloudy
7:40 AM77.0 °F75.2 °F94 %29.87 in10.0 miNE (50°)12.7 mphMostly Cloudy
7:42 AM77.0 °F75.2 °F94 %29.87 in10.0 miNE (50°)12.7 mphMostly Cloudy
7:45 AM78.8 °F75.2 °F89 %29.87 in10.0 miNE (50°)12.7 mphMostly Cloudy
7:55 AM78.3 °F74.8 °F89 %29.88 in10.0 miENE (60°)12.7 mph0.06 inMostly Cloudy
8:38 AM78.8 °F75.2 °F89 %29.89 in10.0 miENE (60°)11.5 mphMostly Cloudy
8:55 AM79.9 °F75.0 °F85 %29.89 in10.0 miENE (60°)12.7 mphMostly Cloudy
9:20 AM80.6 °F75.2 °F84 %29.88 in10.0 miENE (60°)13.8 mphMostly Cloudy
9:55 AM82.4 °F75.2 °F79 %29.88 in10.0 miNE (50°)13.8 mphMostly Cloudy
9:57 AM82.4 °F75.2 °F79 %29.89 in10.0 miENE (60°)12.7 mphMostly Cloudy
9:58 AM82.4 °F75.2 °F79 %29.88 in10.0 miENE (60°)12.7 mphMostly Cloudy
10:36 AM84.2 °F75.2 °F74 %29.88 in10.0 miNE (50°)12.7 mphMostly Cloudy
10:55 AM83.8 °F73.8 °F72 %29.87 in10.0 miENE (60°)10.4 mphMostly Cloudy
11:09 AM82.4 °F73.4 °F74 %29.87 in10.0 miENE (70°)11.5 mphMostly Cloudy
11:14 AM84.2 °F73.4 °F70 %29.87 in10.0 miNNE (30°)12.7 mphMostly Cloudy
11:55 AM84.0 °F73.2 °F70 %29.86 in10.0 miNE (50°)12.7 mphMostly Cloudy
12:55 PM83.8 °F74.1 °F72 %29.83 in10.0 miENE (70°)13.8 mphMostly Cloudy
1:21 PM84.2 °F73.4 °F70 %29.83 in10.0 miENE (70°)13.8 mphMostly Cloudy
1:24 PM84.2 °F73.4 °F70 %29.83 in10.0 miENE (60°)10.4 mphMostly Cloudy
1:27 PM84.2 °F73.4 °F70 %29.82 in10.0 miENE (70°)13.8 mphMostly Cloudy
1:31 PM82.4 °F73.4 °F74 %29.82 in10.0 miENE (60°)11.5 mphMostly Cloudy
1:55 PM83.7 °F73.2 °F71 %29.81 in10.0 miENE (70°)12.7 mphScattered Clouds
2:32 PM84.2 °F73.4 °F70 %29.80 in10.0 miENE (60°)12.7 mphMostly Cloudy
2:37 PM84.2 °F73.4 °F70 %29.80 in10.0 miENE (60°)11.5 mphScattered Clouds
2:38 PM84.2 °F73.4 °F70 %29.80 in10.0 miENE (60°)12.7 mphMostly Cloudy
2:55 PM82.6 °F73.0 °F73 %29.80 in10.0 miEast (80°)11.5 mphMostly Cloudy
3:07 PM84.2 °F73.4 °F70 %29.80 in10.0 miEast (80°)13.8 mphScattered Clouds
3:10 PM84.2 °F73.4 °F70 %29.80 in10.0 miENE (70°)13.8 mphMostly Cloudy
3:15 PM82.4 °F73.4 °F74 %29.80 in10.0 miENE (70°)13.8 mphScattered Clouds
3:30 PM84.2 °F73.4 °F70 %29.80 in10.0 miEast (80°)12.7 mphMostly Cloudy
3:40 PM82.4 °F73.4 °F74 %29.81 in10.0 miENE (60°)11.5 mphScattered Clouds
3:55 PM82.6 °F72.9 °F72 %29.80 in10.0 miNE (50°)13.8 mphScattered Clouds
4:55 PM81.9 °F72.5 °F73 %29.81 in10.0 miENE (70°)12.7 mphPartly Cloudy
5:55 PM80.2 °F71.6 °F75 %29.82 in10.0 miENE (60°)12.7 mphPartly Cloudy
6:55 PM78.3 °F71.4 °F79 %29.84 in10.0 miENE (70°)10.4 mphClear
7:55 PM78.1 °F71.6 °F80 %29.86 in10.0 miENE (60°)12.7 mphScattered Clouds
8:55 PM78.1 °F71.1 °F79 %29.88 in10.0 miENE (60°)11.5 mphScattered Clouds
9:55 PM77.5 °F71.1 °F80 %29.89 in10.0 miENE (60°)11.5 mphClear
10:55 PM77.5 °F71.6 °F82 %29.89 in10.0 miENE (60°)11.5 mphScattered Clouds
11:55 PM77.5 °F71.1 °F80 %29.88 in10.0 miNE (50°)10.4 mphClear
Hourly data recorded from PGUA, located miles away from Inarajan, Guam







STORIES FROM OUR PARTNERS